Location: Unspecified
(0.0000°N, 0.0000°E)
Time: 09:04:24
(UTC+00:00)

SO-50 - Pass Details

Date: 08 December 2017
Orbit: 595 x 692 km, 64.6° (Epoch: 19 July)

Event Time Altitude Azimuth Distance (km) Brightness Sun altitude
Exits shadow 04:11:33 42° 232° (SW) 979 ? -23.0°
Drops below altitude 10° 04:15:43 10° 176° (S) 2,143 ? -22.1°
Sets 04:18:10 0° 170° (S) 3,061 ? -21.5°
